Wind_Speed
2 3 3 4 4 4 5 5 5 6 6 7 7 7 7 7 7 7 8 8 8 9 9 11 12 12 12 13 13 13 12 13 13 13 12 12 11 11 10 10 10 10 10
3 4 4 5 5 5 6 6 7 7 7 7 7 8 8 8 7 8 8 9 9 9 9 9 10 11 12 12 13 13 14 14 13 14 14 13 13 13 11 11 11 11 11
5 5 5 6 7 7 7 7 7 8 8 7 7 8 8 8 9 9 9 9 10 9 9 9 9 10 11 12 12 13 13 13 14 15 15 14 14 13 13 12 12 12 12
6 7 7 7 7 7 8 8 7 8 8 8 8 8 8 9 9 10 10 9 10 10 10 9 10 10 11 12 12 13 13 14 14 14 15 15 15 14 14 14 13 13 13
7 7 7 8 8 8 8 8 8 8 8 8 8 9 9 9 9 10 10 10 11 11 10 10 11 11 11 12 12 13 13 13 14 14 15 16 15 14 14 14 14 14 14
8 9 8 8 8 8 8 8 9 9 8 8 8 8 8 8 9 9 10 9 10 10 10 11 12 12 13 13 13 13 13 13 14 14 16 15 14 15 15 15 15 15 15
9 9 9 9 8 8 8 8 9 9 9 9 8 8 8 9 9 9 10 10 10 10 10 11 12 12 13 14 14 14 14 13 14 14 16 16 15 16 16 15 14 15 15
11 9 9 9 9 9 9 9 9 9 9 9 9 9 8 9 10 10 11 11 11 11 11 12 12 13 13 13 14 14 15 14 14 15 16 16 16 16 16 16 15 15 16
10 9 10 10 11 11 11 10 10 10 10 10 10 10 10 10 10 11 11 11 11 12 12 12 13 14 14 14 14 14 14 15 15 15 15 16 17 17 17 17 17 17 16
11 11 11 10 11 11 12 12 11 10 10 10 11 11 11 11 11 11 11 12 12 12 12 13 13 14 15 15 15 15 16 16 16 16 16 16 17 17 17 18 18 18 18
11 12 11 11 11 11 11 12 12 11 11 11 11 12 11 11 11 12 12 13 13 14 14 14 14 15 15 15 16 16 16 16 17 17 17 17 17 17 18 18 19 19 19
13 13 13 12 12 12 12 12 12 12 11 11 12 12 12 13 13 13 14 14 14 15 15 15 15 16 16 17 17 17 17 18 18 18 18 19 19 19 19 19 19 19 19
13 13 13 13 13 13 13 12 12 12 12 12 12 13 13 14 15 15 16 16 16 16 16 16 16 17 17 17 17 18 18 19 19 19 19 20 20 20 20 20 20 21 21
15 14 14 14 14 14 14 13 13 13 13 14 14 14 14 15 16 16 17 17 18 17 17 17 17 17 18 18 18 18 19 20 20 21 21 21 21 22 22 21 21 22 22
16 16 16 16 16 15 15 15 14 14 15 15 15 16 16 16 16 17 17 17 18 19 18 18 19 19 19 20 20 20 20 21 21 22 23 23 22 22 23 23 22 22 22
18 17 18 18 17 17 17 17 17 17 17 17 17 17 17 18 18 18 18 19 20 20 20 20 21 21 22 22 22 23 23 22 22 23 23 24 24 23 23 23 23 24 24
19 19 19 18 18 18 19 18 18 18 19 19 19 19 19 18 18 19 20 20 20 20 21 22 22 22 22 23 24 24 24 23 23 23 23 23 24 24 24 24 24 25 25
20 20 19 19 19 19 19 19 20 20 20 20 20 20 20 20 20 20 20 20 21 21 21 21 22 23 23 24 25 24 24 24 24 24 24 24 24 24 24 25 25 25 25
22 21 21 20 20 20 20 20 20 21 21 20 20 21 21 21 21 21 21 21 21 22 22 22 22 23 24 25 25 26 25 25 25 26 26 25 25 25 25 26 26 24 25
23 22 21 21 21 21 21 21 22 22 21 21 21 21 21 21 21 22 22 22 22 22 22 22 23 24 24 25 25 26 26 26 26 26 26 26 26 26 26 25 25 25 26
23 23 22 22 22 22 22 22 23 22 22 23 22 22 22 22 23 22 22 22 22 23 23 23 24 25 25 25 25 25 26 26 26 26 26 26 26 26 26 26 26 26 27
23 23 23 23 24 23 23 23 24 23 23 23 23 23 23 23 23 23 22 22 23 24 25 25 25 25 25 25 25 25 26 26 26 26 26 26 25 25 26 27 27 28 28
24 23 23 23 24 23 23 23 24 24 24 24 24 23 24 23 23 23 23 24 24 25 26 26 26 26 26 26 26 26 26 26 26 25 25 25 26 26 26 26 28 28 29
24 24 24 25 24 24 24 24 24 25 25 25 25 24 24 24 24 24 23 24 25 25 25 26 26 26 26 27 27 27 27 27 27 26 26 26 27 27 27 27 27 28 29
26 25 25 26 26 25 25 25 26 25 25 25 26 25 25 25 25 25 24 24 25 25 25 26 26 27 27 27 26 27 27 27 26 26 26 26 26 27 27 28 28 29 29
25 25 25 26 26 27 27 27 27 26 25 25 25 25 26 26 26 26 25 25 25 26 27 27 26 27 27 26 26 26 27 27 26 26 26 26 26 27 28 28 28 29 30
Wind_Direction
267 269 257 253 257 260 270 268 270 281 274 258 247 248 253 257 259 258 260 258 252 247 246 246 241 239 241 240 241 241 243 244 246 246 243 245 247 252 257 259 259 260 262
278 274 269 269 270 268 267 275 273 279 276 264 258 255 260 264 264 265 263 258 253 247 244 243 241 236 236 240 242 245 246 247 250 249 246 245 247 250 256 258 258 258 259
280 274 270 273 275 272 270 273 272 277 275 270 263 262 266 267 262 260 260 258 253 250 246 243 243 242 241 243 248 253 254 252 253 252 248 244 245 248 253 260 259 257 259
288 285 277 279 279 277 271 271 273 277 281 278 269 265 264 266 261 258 259 255 254 252 248 245 244 246 245 247 251 257 259 258 253 251 247 243 243 246 252 258 257 258 261
286 288 290 288 283 278 272 273 274 278 281 280 277 270 263 263 261 258 258 258 253 252 252 248 250 252 253 252 253 257 261 260 255 251 245 245 245 247 250 253 256 257 260
283 282 286 286 286 282 281 280 280 281 280 279 278 269 262 261 259 257 256 259 252 250 250 251 252 254 256 256 257 259 259 259 256 249 246 246 246 249 251 255 256 258 259
288 283 282 281 282 280 283 284 281 280 276 271 272 271 262 261 260 260 258 259 257 251 252 252 253 257 258 257 260 261 260 257 254 249 247 249 251 251 252 256 257 260 261
290 286 280 278 279 280 283 285 281 276 275 271 269 269 267 264 263 263 263 263 260 255 252 253 255 257 259 261 263 263 261 262 259 257 257 257 257 253 257 260 260 262 263
285 287 287 283 278 277 278 279 280 275 272 271 269 269 265 265 266 263 262 262 260 258 254 256 258 258 261 262 264 265 264 264 262 261 260 259 259 258 259 262 264 265 266
280 284 287 284 281 279 277 275 274 275 271 271 272 273 268 264 267 269 264 263 262 262 259 257 257 259 262 264 266 266 265 263 262 264 263 262 261 260 261 263 266 267 267
279 282 282 280 281 281 279 277 275 271 271 271 272 274 272 266 264 266 269 268 264 263 263 262 259 260 264 267 270 270 268 267 267 264 262 261 262 264 266 266 265 266 266
278 276 276 277 279 280 279 279 276 272 269 269 271 272 273 270 268 266 268 269 268 268 266 265 265 264 265 267 269 271 270 269 269 268 265 264 266 267 267 267 265 265 266
276 276 276 276 277 278 278 278 276 273 269 269 273 274 274 275 273 270 269 270 272 273 271 270 269 269 270 271 272 270 269 269 270 270 269 269 269 269 268 267 268 268 268
273 273 275 276 275 274 274 275 273 271 270 271 272 273 273 276 277 274 271 270 272 273 273 272 272 271 272 272 274 273 271 271 271 270 270 270 270 269 266 267 269 269 268
271 272 273 275 274 273 272 271 271 271 272 274 277 274 274 276 277 276 273 270 271 270 272 271 271 273 274 274 274 275 276 275 273 272 270 270 272 271 268 267 268 270 269
271 272 273 272 271 272 272 271 271 272 271 272 274 273 274 275 275 276 274 272 273 271 272 272 273 273 274 275 274 275 276 275 275 275 272 270 271 270 270 270 271 271 272
270 273 273 269 269 269 271 271 270 271 270 271 272 274 274 276 276 275 274 274 273 272 272 272 272 273 275 276 276 276 275 275 275 275 275 275 272 270 270 272 274 272 272
270 271 269 268 269 269 270 271 270 269 269 270 271 272 273 276 278 277 276 276 275 275 274 274 272 273 275 276 277 277 276 275 276 276 276 276 273 273 272 273 275 275 273
268 269 269 267 268 267 267 268 270 269 269 270 270 271 273 275 277 278 278 278 277 276 275 276 275 275 277 277 278 278 277 276 275 275 276 276 275 276 274 272 273 275 275
265 267 268 266 266 266 266 267 269 269 269 270 271 271 272 273 276 276 277 278 278 277 277 277 276 276 278 278 278 278 278 277 276 275 275 275 275 276 274 273 272 273 275
265 265 264 264 266 267 267 267 268 269 270 270 270 271 272 274 275 276 277 277 278 279 279 279 278 278 279 280 280 279 278 277 277 276 275 275 274 274 273 272 272 273 274
263 264 263 264 265 267 266 266 268 270 271 271 271 272 272 273 275 275 277 277 278 278 279 280 280 279 279 279 280 280 279 278 277 276 276 276 275 276 275 273 274 274 275
264 268 269 268 266 266 265 266 268 270 271 272 271 272 272 273 275 277 276 277 277 278 279 279 280 281 280 279 279 279 279 277 277 276 276 276 277 277 276 274 274 274 275
267 269 270 271 269 266 265 267 269 269 270 271 271 271 271 272 275 277 277 277 277 278 278 279 281 282 282 281 280 279 278 278 278 277 276 276 276 275 275 275 275 275 275
268 268 270 269 268 266 266 268 269 270 271 271 270 272 272 273 276 277 277 278 279 278 278 280 282 283 282 282 281 278 277 276 276 276 276 277 276 276 275 275 276 277 276
269 269 271 270 270 267 267 270 270 272 272 271 272 272 273 274 275 276 278 281 280 280 280 281 282 283 282 281 281 279 277 276 274 275 275 276 276 276 277 276 276 277 278
Height
5879 5879 5878 5878 5878 5878 5877 5877 5877 5876 5876 5876 5876 5876 5876 5876 5876 5875 5875 5875 5876 5876 5876 5875 5875 5876 5877 5878 5879 5879 5880 5880 5881 5882 5882 5883 5884 5885 5886 5886 5887 5887 5887
5878 5878 5878 5877 5877 5877 5876 5876 5876 5875 5875 5874 5874 5874 5874 5874 5874 5874 5874 5874 5874 5874 5874 5873 5873 5874 5875 5876 5876 5877 5877 5877 5877 5878 5879 5880 5882 5883 5884 5884 5884 5885 5885
5877 5877 5876 5876 5876 5875 5875 5875 5874 5874 5873 5873 5873 5872 5872 5872 5872 5872 5872 5872 5872 5872 5872 5872 5872 5872 5873 5873 5874 5874 5873 5872 5872 5873 5875 5877 5879 5880 5881 5882 5882 5882 5883
5876 5875 5875 5875 5875 5874 5873 5873 5873 5872 5872 5871 5871 5870 5870 5870 5870 5870 5870 5870 5870 5870 5870 5870 5871 5871 5871 5871 5872 5871 5870 5868 5868 5869 5871 5873 5875 5877 5878 5879 5879 5880 5880
5875 5874 5873 5873 5873 5872 5872 5872 5871 5871 5870 5870 5869 5868 5868 5868 5868 5868 5868 5868 5868 5868 5868 5869 5869 5869 5869 5869 5870 5869 5867 5866 5865 5866 5868 5870 5872 5874 5875 5876 5876 5877 5877
5872 5872 5872 5871 5871 5871 5870 5870 5869 5869 5868 5868 5867 5866 5866 5866 5866 5866 5866 5866 5866 5866 5866 5866 5867 5867 5867 5867 5867 5867 5865 5864 5863 5864 5866 5868 5870 5871 5872 5873 5873 5874 5874
5870 5870 5870 5869 5869 5869 5868 5867 5867 5866 5866 5865 5865 5865 5864 5864 5864 5864 5864 5864 5864 5864 5864 5864 5864 5865 5865 5865 5864 5864 5863 5862 5862 5863 5865 5866 5867 5868 5869 5869 5870 5870 5870
5869 5868 5868 5868 5867 5866 5866 5865 5865 5864 5864 5863 5863 5863 5863 5863 5862 5862 5862 5862 5862 5862 5862 5862 5862 5862 5862 5862 5862 5861 5861 5861 5861 5861 5862 5863 5864 5865 5865 5866 5866 5867 5867
5867 5866 5865 5865 5864 5864 5863 5862 5862 5862 5861 5861 5861 5861 5861 5861 5860 5860 5859 5859 5859 5859 5859 5859 5859 5859 5859 5859 5859 5859 5859 5859 5859 5859 5859 5860 5860 5861 5862 5862 5863 5863 5863
5864 5864 5863 5862 5861 5861 5860 5860 5859 5859 5859 5858 5858 5858 5858 5857 5857 5857 5857 5856 5856 5856 5856 5856 5856 5857 5856 5856 5856 5856 5856 5856 5856 5856 5856 5856 5857 5857 5858 5858 5859 5859 5859
5861 5861 5860 5859 5859 5858 5858 5857 5856 5856 5856 5856 5855 5855 5855 5855 5855 5855 5854 5854 5853 5853 5853 5853 5853 5853 5853 5853 5853 5853 5852 5852 5852 5853 5853 5852 5853 5853 5854 5854 5854 5855 5855
5858 5857 5857 5856 5856 5855 5855 5854 5853 5853 5853 5852 5852 5852 5852 5852 5852 5851 5851 5850 5850 5850 5849 5849 5849 5849 5849 5849 5849 5849 5849 5849 5848 5848 5848 5849 5849 5849 5849 5849 5849 5850 5850
5855 5854 5854 5853 5853 5852 5852 5851 5850 5850 5850 5849 5849 5849 5849 5848 5848 5848 5848 5847 5847 5846 5846 5845 5845 5845 5845 5845 5845 5845 5845 5844 5844 5844 5844 5844 5844 5844 5844 5844 5844 5844 5845
5851 5851 5850 5850 5849 5849 5848 5848 5847 5846 5846 5846 5846 5845 5845 5845 5844 5844 5844 5843 5843 5842 5842 5841 5841 5841 5841 5841 5840 5840 5840 5840 5840 5840 5840 5840 5840 5839 5839 5839 5839 5839 5839
5847 5847 5846 5845 5845 5845 5844 5844 5843 5843 5842 5842 5842 5841 5841 5840 5840 5839 5839 5839 5839 5838 5838 5837 5837 5836 5836 5836 5836 5835 5835 5835 5835 5835 5834 5834 5834 5833 5834 5834 5834 5833 5833
5843 5842 5841 5840 5840 5840 5839 5839 5838 5838 5838 5838 5837 5837 5836 5836 5835 5835 5834 5834 5833 5833 5833 5832 5832 5831 5831 5831 5830 5830 5830 5829 5829 5829 5829 5828 5828 5828 5828 5828 5827 5827 5827
5838 5837 5836 5835 5835 5834 5834 5834 5833 5833 5833 5833 5833 5832 5832 5831 5830 5829 5829 5828 5828 5828 5827 5827 5826 5826 5825 5825 5824 5824 5824 5823 5823 5823 5822 5822 5822 5822 5822 5821 5821 5821 5820
5832 5831 5830 5830 5829 5829 5828 5828 5828 5827 5827 5827 5827 5827 5826 5826 5825 5824 5824 5823 5822 5822 5822 5821 5821 5820 5820 5819 5818 5818 5817 5817 5816 5816 5816 5816 5816 5815 5815 5815 5815 5814 5814
5826 5825 5824 5824 5824 5823 5823 5822 5822 5821 5821 5821 5821 5821 5820 5820 5820 5819 5818 5817 5816 5816 5815 5815 5815 5814 5813 5812 5811 5811 5810 5810 5810 5810 5810 5809 5809 5809 5808 5808 5808 5808 5807
5819 5819 5818 5818 5817 5817 5817 5816 5816 5815 5815 5815 5815 5814 5814 5814 5814 5813 5812 5811 5810 5810 5809 5808 5808 5807 5806 5805 5804 5804 5803 5803 5803 5802 5802 5802 5802 5802 5801 5801 5801 5801 5801
5812 5812 5811 5811 5811 5811 5810 5810 5809 5809 5808 5808 5808 5807 5808 5807 5807 5806 5806 5805 5804 5803 5802 5802 5801 5800 5799 5798 5798 5797 5796 5795 5795 5795 5795 5795 5795 5794 5794 5794 5794 5794 5793
5805 5805 5804 5804 5804 5804 5804 5803 5803 5802 5802 5801 5801 5800 5801 5800 5800 5800 5799 5798 5798 5797 5796 5795 5794 5793 5792 5791 5790 5790 5789 5788 5788 5788 5787 5787 5787 5786 5786 5786 5786 5786 5786
5798 5797 5797 5797 5797 5797 5797 5796 5796 5796 5795 5794 5794 5793 5793 5793 5793 5793 5792 5791 5790 5789 5789 5788 5787 5786 5785 5784 5783 5782 5781 5781 5780 5780 5779 5779 5779 5778 5778 5778 5778 5778 5777
5790 5790 5790 5790 5790 5790 5790 5790 5789 5788 5788 5788 5787 5787 5787 5786 5786 5786 5785 5784 5783 5782 5781 5781 5780 5779 5777 5776 5776 5775 5774 5773 5772 5772 5772 5771 5771 5770 5770 5770 5770 5769 5769
5783 5783 5783 5783 5783 5783 5783 5783 5782 5781 5781 5781 5781 5780 5780 5780 5779 5779 5778 5777 5776 5775 5774 5773 5772 5771 5770 5769 5768 5767 5766 5765 5765 5764 5764 5763 5763 5762 5762 5761 5761 5760 5759
5776 5776 5776 5775 5775 5775 5776 5775 5775 5774 5774 5774 5774 5773 5773 5773 5773 5772 5771 5770 5769 5768 5767 5765 5764 5763 5762 5761 5760 5759 5758 5757 5757 5757 5756 5755 5755 5754 5753 5753 5752 5751 5750